#timestamp,LO_Frequency,Hit,StdDev 
1548072015.5,286047000.5,N
1548072035.3,286047000.0,N
1548072055.2,286047002.5,N
1548072075.9,286047002.6,N
1548072095.7,286047002.4,N
1548072115.6,286047004.4,N
1548072135.4,286047003.1,N
1548072155.2,286047003.3,N
1548072175.1,286047003.0,N
1548072176.0,286047003.0,N
1548072195.8,286047003.4,N
1548072215.7,286047007.4,N
1548072235.5,286047008.6,N
1548072255.3,286047006.3,N
1548072275.2,286047005.7,N
1548072295.0,286047004.1,N
1548072295.9,286047004.1,N
1548072315.7,286047004.1,N
1548072335.6,286047002.9,N
1548072355.4,286047006.2,N
1548072375.3,286047005.2,N
1548072395.1,286047005.8,N
1548072396.0,286047005.8,N
1548072415.8,286047003.6,N
1548072435.7,286047003.5,N
1548072455.5,286047005.5,N
1548072475.4,286047007.2,N
1548072495.2,286047006.9,N
1548072515.0,286047004.8,N
1548072515.9,286047004.8,N
1548072535.8,286047004.9,N
1548072555.6,286047005.3,N
1548072575.4,286047003.7,N
1548072595.3,286047004.1,N
1548072615.1,286047002.1,N
1548072635.9,286047002.3,N
1548072655.7,286047000.2,N
1548072675.5,286047000.9,N
1548072695.4,286046999.8,N
1548072715.2,286047001.1,N
1548072735.0,286046998.4,N
1548072735.9,286046998.4,N
1548072755.8,286046998.1,N
1548072775.6,286046998.4,N
1548072795.5,286046998.8,N
1548072815.3,286046998.1,N
1548072835.1,286047001.8,N
1548072855.9,286047003.1,N
1548072875.7,286047004.1,N
1548072895.5,286047004.0,N
1548072915.4,286047002.6,N
1548072935.2,286047002.3,N
1548072955.1,286047001.3,N
1548072956.0,286047001.3,N
1548072975.8,286047005.9,N
1548072995.6,286047004.5,N
1548073015.5,286047006.5,N
1548073035.3,286047007.8,N
1548073055.1,286047007.7,N
1548073075.9,286047010.1,Y
1548073095.7,286047006.5,P
1548073115.6,286047007.2,P
1548073135.4,286047007.5,P
1548073155.2,286047003.3,N
1548073175.1,286047001.4,N
1548073176.0,286047001.4,N
1548073195.8,286047001.2,N
1548073215.7,286046997.1,N
1548073235.5,286046996.5,N
1548073255.3,286046999.2,N
1548073275.2,286046998.1,N
1548073295.9,286046998.8,N
1548073315.7,286047001.2,N
1548073335.6,286046999.5,N
1548073355.4,286046997.1,N
1548073375.2,286046997.6,N
1548073395.1,286047001.2,N
1548073396.0,286047001.2,N
1548073415.8,286047002.1,N
1548073435.7,286047005.8,N
1548073455.5,286047007.6,N
1548073475.3,286047005.0,N
1548073495.2,286047001.3,N
1548073515.0,286046998.1,N
1548073515.9,286046998.1,N
1548073535.8,286046997.0,N
1548073555.6,286046995.0,N
1548073575.4,286046995.5,N
1548073595.3,286046997.2,N
1548073615.1,286046996.5,N
1548073635.8,286046997.8,N
1548073655.8,286046997.5,N
1548073675.6,286046998.7,N
1548073695.4,286046999.5,N
1548073715.3,286046998.4,N
1548073735.1,286046999.1,N
1548073755.9,286046998.3,N
1548073775.7,286047000.8,N
1548073795.5,286047002.7,N
1548073815.4,286047000.5,N
1548073835.2,286046999.3,N
1548073855.0,286046998.2,N
1548073855.9,286046998.2,N
1548073875.8,286046999.9,N
1548073895.6,286047002.3,N
1548073915.5,286047002.6,N
1548073935.3,286047001.4,N
1548073955.1,286047001.5,N
1548073975.9,286047000.1,N
1548073995.7,286046998.2,N
1548074015.5,286046999.2,N
1548074035.4,286046996.8,N
1548074055.2,286046997.4,N
1548074075.1,286046997.1,N
1548074076.0,286046997.1,N
1548074095.8,286047002.0,N
1548074115.6,286047003.4,N
1548074135.5,286047007.6,Y
1548074155.3,286047004.8,P
1548074175.2,286047001.8,N
1548074195.9,286047000.7,N
1548074215.7,286047001.2,N
1548074235.6,286047004.3,N
1548074255.4,286047005.7,N
1548074275.2,286047002.1,N
1548074295.1,286047000.2,N
1548074296.0,286047000.2,N
1548074315.8,286046999.9,N
1548074335.7,286047002.8,N
1548074355.5,286047002.8,N
1548074375.3,286047000.3,N
1548074395.2,286046999.1,N
1548074415.0,286046998.9,N
1548074415.9,286046998.9,N
1548074435.8,286047001.2,N
1548074455.6,286046999.8,N
1548074475.4,286047004.1,N
1548074495.3,286047005.1,N
1548074515.1,286047004.6,N
1548074535.9,286047005.6,N
1548074555.7,286047006.0,N
1548074575.5,286047002.0,N
1548074595.4,286047000.8,N
1548074615.2,286046998.2,N
1548074635.1,286047000.3,N
1548074636.0,286047000.3,N
1548074655.8,286047001.8,N
1548074675.6,286046999.7,N
1548074695.5,286047002.1,N
1548074715.3,286047003.2,N
1548074735.2,286047003.1,N
1548074755.9,286047007.1,Y
1548074775.7,286047007.1,P
1548074795.6,286047007.2,N
1548074815.4,286047005.4,N
1548074835.3,286047003.1,N
1548074855.1,286047000.1,N
1548074856.0,286047000.1,N
1548074875.8,286047000.2,N
1548074895.7,286047001.0,N
1548074915.5,286046999.1,N
1548074935.3,286046996.5,N
1548074955.2,286047001.2,N
1548074975.0,286047001.9,N
1548074975.9,286047001.9,N
1548074995.8,286046999.8,N
1548075015.6,286047001.6,N
1548075035.4,286047001.7,N
1548075055.3,286047004.1,N
1548075075.1,286047002.8,N
1548075095.8,286046998.6,N
1548075115.7,286046999.1,N
1548075135.5,286046998.0,N
1548075155.4,286046999.4,N
1548075175.2,286046998.2,N
1548075195.0,286046998.3,N
1548075195.9,286046998.3,N
1548075215.8,286046998.8,N
1548075235.6,286046996.9,N
1548075255.4,286046997.9,N
1548075275.3,286046997.7,N
1548075295.1,286046995.5,N
1548075315.9,286046994.0,N
1548075335.7,286046993.7,N
1548075355.5,286046996.7,N
1548075375.4,286047000.9,N
1548075395.2,286046999.9,N
1548075415.0,286046999.4,N
1548075416.0,286046999.4,N
1548075435.8,286046998.2,N
1548075455.6,286046998.6,N
1548075475.5,286046996.9,N
1548075495.3,286046996.4,N
1548075515.1,286046995.9,N
1548075535.9,286046995.9,N
1548075555.7,286046995.3,N
1548075575.5,286046997.1,N
1548075595.4,286046999.0,N
